Wise, VA

3:46 PM EST on December 05, 2019 (GMT -0500)
Lonesome Pine

Weather History for KLNP - October, 2019

Change the Weather History Date:

Monday, October 7, 2019

  Actual Average Record
Temperature  
Mean Temperature 61 °F -  
Max Temperature 69 °F 65 °F 86 °F (2007)
Min Temperature 53 °F 46 °F 33 °F (2001)
Degree Days  
Heating Degree Days 4    
Growing Degree Days 11 (Base 50)    
Moisture  
Dew Point 59 °F    
Average Humidity 93    
Maximum Humidity 100    
Minimum Humidity 68    
Precipitation  
Precipitation 0.21 in - - ()
Sea Level Pressure  
Sea Level Pressure 30.18 in    
Wind  
Wind Speed 8 mph (WSW)    
Max Wind Speed 13 mph    
Max Gust Speed 17 mph    
Visibility 6 miles    
Events Fog , Rain    
Averages and records for this station are not official NWS values.
T = Trace of Precipitation, MM = Missing Value Source: NWS Daily Summary

Daily Weather History Graph

Daily Weather History Graph

Search for Another Location

Airport or City:

Astronomy

Oct. 07, 2019 Rise Set
Actual Time 7:30 AM EDT 7:04 PM EDT
Civil Twilight 7:04 AM EDT 7:30 PM EDT
Nautical Twilight 6:34 AM EDT 8:00 PM EDT
Astronomical Twilight 6:04 AM EDT 8:31 PM EDT
Moon 4:16 PM EDT (10/7) 1:32 AM EDT (10/7)
Length of Visible Light 12h 26m
Length of Day
11h 34m
Waxing Gibbous, 69% of the Moon is Illuminated
Oct 7
Waxing Gibbous
Oct 13
Full
Oct 21
Last Quarter
Oct 27
New
Nov 4
First Quarter

Hourly Weather History & Observations

Time (EDT) Temp. Dew Point Humidity Pressure Visibility Wind Dir Wind Speed Gust Speed Precip Events Conditions
12:15 AM 64.4 °F 62.6 °F 94% 30.22 in 10.0 mi South 10.4 mph - N/A   Scattered Clouds
12:35 AM 64.4 °F 62.6 °F 94% 30.22 in 10.0 mi SSE 8.1 mph - N/A   Mostly Cloudy
12:55 AM 64.4 °F 62.6 °F 94% 30.21 in 10.0 mi South 8.1 mph - N/A   Scattered Clouds
1:15 AM 64.4 °F 62.6 °F 94% 30.20 in 10.0 mi SSE 10.4 mph 16.1 mph N/A   Scattered Clouds
1:35 AM 64.4 °F 60.8 °F 88% 30.21 in 10.0 mi South 12.7 mph 17.3 mph N/A   Scattered Clouds
1:55 AM 64.4 °F 60.8 °F 88% 30.20 in 10.0 mi South 10.4 mph - N/A   Scattered Clouds
2:15 AM 64.4 °F 60.8 °F 88% 30.19 in 10.0 mi South 9.2 mph 16.1 mph N/A   Scattered Clouds
2:35 AM 64.4 °F 60.8 °F 88% 30.19 in 10.0 mi South 10.4 mph - N/A   Clear
2:55 AM 64.4 °F 60.8 °F 88% 30.19 in 10.0 mi South 10.4 mph - N/A   Clear
3:15 AM 64.4 °F 60.8 °F 88% 30.19 in 10.0 mi South 9.2 mph - N/A   Scattered Clouds
3:35 AM 64.4 °F 60.8 °F 88% 30.18 in 10.0 mi South 12.7 mph 17.3 mph N/A   Scattered Clouds
3:55 AM 64.4 °F 60.8 °F 88% 30.18 in 10.0 mi South 8.1 mph - N/A   Scattered Clouds
4:15 AM 64.4 °F 60.8 °F 88% 30.17 in 10.0 mi South 8.1 mph - N/A   Scattered Clouds
4:35 AM 62.6 °F 60.8 °F 94% 30.18 in 10.0 mi SSW 5.8 mph - N/A   Clear
4:55 AM 62.6 °F 60.8 °F 94% 30.17 in 10.0 mi South 5.8 mph - N/A   Clear
5:15 AM 62.6 °F 60.8 °F 94% 30.18 in 10.0 mi Calm Calm - N/A   Scattered Clouds
5:35 AM 62.6 °F 62.6 °F 100% 30.18 in 10.0 mi Calm Calm - N/A   Mostly Cloudy
5:55 AM 62.6 °F 62.6 °F 100% 30.18 in 10.0 mi SW 3.5 mph - N/A   Mostly Cloudy
6:15 AM 62.6 °F 62.6 °F 100% 30.18 in 10.0 mi SW 4.6 mph - N/A   Scattered Clouds
6:35 AM 62.6 °F 62.6 °F 100% 30.17 in 10.0 mi SW 3.5 mph - N/A   Scattered Clouds
6:55 AM 62.6 °F 62.6 °F 100% 30.17 in 10.0 mi SSW 4.6 mph - N/A   Scattered Clouds
7:15 AM 62.6 °F 60.8 °F 94% 30.16 in 10.0 mi SSW 3.5 mph - N/A   Scattered Clouds
7:35 AM 62.6 °F 62.6 °F 100% 30.16 in 10.0 mi South 5.8 mph - N/A   Scattered Clouds
7:55 AM 62.6 °F 60.8 °F 94% 30.17 in 10.0 mi Calm Calm - N/A   Scattered Clouds
8:15 AM 62.6 °F 62.6 °F 100% 30.17 in 10.0 mi SW 4.6 mph - N/A   Scattered Clouds
8:35 AM 64.4 °F 60.8 °F 88% 30.17 in 10.0 mi SSW 6.9 mph - N/A   Mostly Cloudy
8:55 AM 66.2 °F 60.8 °F 83% 30.17 in 10.0 mi SSW 6.9 mph - N/A   Mostly Cloudy
10:15 AM 69.8 °F 59.0 °F 68% 30.16 in 10.0 mi SSE 5.8 mph - N/A   Mostly Cloudy
10:35 AM 69.8 °F 59.0 °F 68% 30.17 in 10.0 mi South 4.6 mph - N/A   Overcast
10:55 AM 69.8 °F 59.0 °F 68% 30.17 in 10.0 mi South 8.1 mph - N/A   Overcast
11:15 AM 69.8 °F 59.0 °F 68% 30.17 in 10.0 mi SSW 8.1 mph - N/A   Overcast
11:35 AM 69.8 °F 59.0 °F 68% 30.17 in 10.0 mi South 8.1 mph - N/A   Overcast
11:55 AM 69.8 °F 59.0 °F 68% 30.16 in 10.0 mi SSW 5.8 mph - N/A   Overcast
12:15 PM 68.0 °F 60.8 °F 78% 30.16 in 7.0 mi SSW 9.2 mph - 0.01 in Rain Light Rain
12:35 PM 68.0 °F 60.8 °F 78% 30.16 in 10.0 mi SW 8.1 mph - 0.01 in   Overcast
12:55 PM 69.8 °F 60.8 °F 73% 30.15 in 10.0 mi SSW 4.6 mph - 0.01 in   Mostly Cloudy
1:15 PM 69.8 °F 59.0 °F 68% 30.15 in 10.0 mi SSW 12.7 mph 16.1 mph N/A Rain Light Rain
1:35 PM 68.0 °F 64.4 °F 88% 30.14 in 10.0 mi SW 8.1 mph - N/A Rain Rain
1:55 PM 64.4 °F 64.4 °F 100% 30.14 in 10.0 mi SW 5.8 mph - 0.03 in Rain Light Rain
2:15 PM 64.4 °F 64.4 °F 100% 30.14 in 10.0 mi WSW 11.5 mph - N/A   Overcast
2:35 PM 60.8 °F 60.8 °F 100% 30.15 in 3.0 mi NW 6.9 mph 16.1 mph 0.11 in Rain Rain
2:55 PM 60.8 °F 60.8 °F 100% 30.14 in 7.0 mi NNW 5.8 mph - 0.14 in Rain Light Rain
3:15 PM 60.8 °F 60.8 °F 100% 30.14 in 10.0 mi North 8.1 mph - 0.01 in   Overcast
3:35 PM 59.0 °F 59.0 °F 100% 30.14 in 1.0 mi NNW 6.9 mph - 0.01 in   Overcast
3:55 PM 59.0 °F 59.0 °F 100% 30.14 in 10.0 mi NNW 5.8 mph - 0.01 in   Light Drizzle
4:15 PM 59.0 °F 59.0 °F 100% 30.15 in 0.8 mi NNW 10.4 mph - N/A Rain Light Rain
4:35 PM 57.2 °F 57.2 °F 100% 30.16 in 0.2 mi NNW 5.8 mph - N/A Fog Fog
4:55 PM 55.4 °F 55.4 °F 100% 30.15 in 4.0 mi North 6.9 mph - 0.01 in   Drizzle
5:15 PM 55.4 °F 55.4 °F 100% 30.15 in 10.0 mi NNE 5.8 mph - N/A   Overcast
5:35 PM 55.4 °F 55.4 °F 100% 30.15 in 0.5 mi North 6.9 mph - N/A Fog Fog
5:55 PM 55.4 °F 55.4 °F 100% 30.16 in 0.2 mi North 6.9 mph - N/A Fog Fog
6:15 PM 55.4 °F 55.4 °F 100% 30.16 in 0.2 mi North 6.9 mph - N/A Fog Fog
6:35 PM 55.4 °F 55.4 °F 100% 30.16 in 0.2 mi NNW 4.6 mph - N/A Fog Fog
6:55 PM 55.4 °F 55.4 °F 100% 30.17 in 0.2 mi North 5.8 mph - N/A Fog Fog
7:15 PM 55.4 °F 55.4 °F 100% 30.17 in 0.2 mi North 4.6 mph - N/A Fog Fog
7:35 PM 55.4 °F 55.4 °F 100% 30.18 in 0.2 mi NNW 8.1 mph - N/A Fog Fog
7:55 PM 53.6 °F 53.6 °F 100% 30.18 in 0.2 mi North 8.1 mph - N/A Fog Fog
8:15 PM 53.6 °F 53.6 °F 100% 30.20 in 0.2 mi North 6.9 mph - N/A Fog Fog
8:35 PM 53.6 °F 53.6 °F 100% 30.19 in 0.2 mi North 8.1 mph - 0.01 in Fog Fog
8:55 PM 53.6 °F 53.6 °F 100% 30.19 in 0.2 mi North 5.8 mph - 0.01 in Fog Fog
9:15 PM 53.6 °F 53.6 °F 100% 30.20 in 0.2 mi NNW 5.8 mph - N/A Fog Fog
9:35 PM 53.6 °F 53.6 °F 100% 30.21 in 0.2 mi North 5.8 mph - N/A Fog Fog
9:55 PM 53.6 °F 53.6 °F 100% 30.21 in 0.2 mi North 4.6 mph - N/A Fog Fog
10:15 PM 53.6 °F 53.6 °F 100% 30.21 in 0.2 mi North 8.1 mph - N/A Fog Fog
10:35 PM 53.6 °F 53.6 °F 100% 30.21 in 0.2 mi North 5.8 mph - N/A Fog Fog
10:55 PM 53.6 °F 53.6 °F 100% 30.21 in 0.2 mi North 5.8 mph - N/A Fog Fog
11:15 PM 53.6 °F 53.6 °F 100% 30.20 in 0.2 mi NNE 6.9 mph - N/A Fog Fog
11:35 PM 53.6 °F 53.6 °F 100% 30.20 in 0.2 mi North 5.8 mph - N/A Fog Fog
11:55 PM 53.6 °F 53.6 °F 100% 30.21 in 0.2 mi North 5.8 mph - N/A Fog Fog